This demonstration page uses our WeatherBlox Daily Observations layout. Learn more.

Left ArrowRight Arrow

Hourly Observations for March 3, 2021

Temp ( °F °C ) Dew Point ( °F °C ) Humidity (%) Winds ( mph kmh ) Pressure ( in mb ) Visibility ( mi km ) Precip ( " mm )
12:15 am 00:15 Clear 32 0 19 -7 60 60 S 5 7 30.12 1020 10 16.0934 0 0
12:35 am 00:35 Clear 32 0 19 -7 60 60 SW 5 7 30.12 1020 10 16.0934 0 0
12:55 am 00:55 Clear 28 -2 23 -5 80 80 Calm 30.12 1020 10 16.0934 0 0
1:15 am 01:15 Clear 30 -1 23 -5 75 75 Calm 30.11 1020 10 16.0934 0 0
1:35 am 01:35 Clear 32 0 21 -6 64 64 S 5 7 30.11 1020 10 16.0934 0 0
1:55 am 01:55 Clear 28 -2 19 -7 69 69 SW 3 6 30.12 1020 10 16.0934 0 0
2:15 am 02:15 Clear 27 -3 23 -5 86 86 SW 6 9 30.11 1020 10 16.0934 0 0
2:35 am 02:35 Clear 27 -3 21 -6 80 80 W 6 9 30.11 1020 10 16.0934 0 0
2:55 am 02:55 Clear 28 -2 23 -5 80 80 WSW 3 6 30.1 1019 10 16.0934 0 0
3:15 am 03:15 Clear 30 -1 21 -6 69 69 S 3 6 30.08 1019 10 16.0934 0 0
3:35 am 03:35 Clear 28 -2 21 -6 74 74 Calm 30.08 1018 10 16.0934 0 0
3:55 am 03:55 Clear 28 -2 23 -5 80 80 WSW 3 6 30.08 1018 10 16.0934 0 0
4:15 am 04:15 Clear 27 -3 21 -6 80 80 Calm 30.07 1018 10 16.0934 0 0
4:35 am 04:35 Clear 28 -2 23 -5 80 80 Calm 30.07 1018 10 16.0934 0 0
4:55 am 04:55 Clear 28 -2 23 -5 80 80 Calm 30.07 1018 10 16.0934 0 0
5:15 am 05:15 Clear 27 -3 23 -5 86 86 Calm 30.07 1018 10 16.0934 0 0
5:35 am 05:35 Clear 27 -3 23 -5 86 86 S 6 9 30.06 1018 10 16.0934 0 0
5:55 am 05:55 Clear 27 -3 21 -6 80 80 S 5 7 30.06 1018 10 16.0934 0 0
6:15 am 06:15 Clear 25 -4 21 -6 86 86 Calm 30.06 1018 10 16.0934 0 0
6:35 am 06:35 Clear 27 -3 23 -5 86 86 W 3 6 30.06 1018 10 16.0934 0 0
6:55 am 06:55 Sunny 27 -3 23 -5 86 86 Calm 30.06 1018 10 16.0934 0 0
7:15 am 07:15 Sunny 27 -3 23 -5 86 86 WSW 3 6 30.06 1018 10 16.0934 0 0
7:35 am 07:35 Sunny 27 -3 23 -5 86 86 WSW 5 7 30.06 1018 10 16.0934 0 0
7:55 am 07:55 Sunny 30 -1 25 -4 80 80 W 5 7 30.05 1018 10 16.0934 0 0
8:15 am 08:15 Sunny 32 0 25 -4 75 75 Calm 30.06 1018 10 16.0934 0 0
8:35 am 08:35 Sunny 34 1 27 -3 75 75 Calm 30.06 1018 10 16.0934 0 0
8:55 am 08:55 Sunny 34 1 27 -3 75 75 Calm 30.06 1018 10 16.0934 0 0
9:15 am 09:15 Sunny 37 3 27 -3 65 65 SW 3 6 30.06 1018 10 16.0934 0 0
9:35 am 09:35 Sunny 41 5 27 -3 57 57 S 5 7 30.05 1018 10 16.0934 0 0
9:55 am 09:55 Sunny 43 6 25 -4 49 49 SW 5 7 30.03 1017 10 16.0934 0 0
10:15 am 10:15 Sunny 45 7 23 -5 42 42 WNW 12 19 30.03 1017 10 16.0934 0 0
10:35 am 10:35 Sunny 46 8 21 -6 37 37 W 12 19 30.02 1017 10 16.0934 0 0
10:55 am 10:55 Sunny 48 9 19 -7 32 32 NNW 12 19 30.02 1017 10 16.0934 0 0
11:15 am 11:15 Sunny 50 10 21 -6 32 32 WNW 13 20 30.01 1016 10 16.0934 0 0
11:35 am 11:35 Sunny 50 10 23 -5 35 35 WNW 10 17 30 1016 10 16.0934 0 0
11:55 am 11:55 Sunny 52 11 23 -5 32 32 WNW 16 26 29.98 1015 10 16.0934 0 0
12:15 pm 12:15 Sunny 54 12 25 -4 33 33 NW 8 13 29.97 1015 10 16.0934 0 0
12:35 pm 12:35 Sunny 54 12 25 -4 33 33 NW 13 20 29.97 1015 10 16.0934 0 0
12:55 pm 12:55 Sunny 54 12 25 -4 33 33 WNW 10 17 29.95 1014 10 16.0934 0 0
1:35 pm 13:35 Sunny 55 13 25 -4 31 31 WSW 9 15 29.93 1014 10 16.0934 0 0
1:55 pm 13:55 Sunny 55 13 25 -4 31 31 SW 5 7 29.92 1013 10 16.0934 0 0
2:15 pm 14:15 Sunny 57 14 27 -3 31 31 W 9 15 29.9 1013 10 16.0934 0 0
2:35 pm 14:35 Sunny 57 14 25 -4 29 29 WNW 6 9 29.9 1013 10 16.0934 0 0
2:55 pm 14:55 Sunny 57 14 23 -5 27 27 NW 5 7 29.89 1012 10 16.0934 0 0
3:15 pm 15:15 Sunny 59 15 27 -3 29 29 W 9 15 29.89 1012 10 16.0934 0 0
3:35 pm 15:35 Sunny 59 15 27 -3 29 29 W 8 13 29.88 1012 10 16.0934 0 0
3:55 pm 15:55 Sunny 59 15 27 -3 29 29 WNW 12 19 29.88 1012 10 16.0934 0 0
4:35 pm 16:35 Sunny 59 15 27 -3 29 29 NNW 12 19 29.88 1012 10 16.0934 0 0
4:55 pm 16:55 Sunny 59 15 27 -3 29 29 WNW 10 17 29.88 1012 10 16.0934 0 0
5:15 pm 17:15 Sunny 59 15 27 -3 29 29 WNW 12 19 29.88 1012 10 16.0934 0 0
5:35 pm 17:35 Sunny 57 14 27 -3 31 31 W 9 15 29.88 1012 10 16.0934 0 0
5:55 pm 17:55 Sunny 55 13 27 -3 33 33 WNW 5 7 29.88 1012 10 16.0934 0 0
6:15 pm 18:15 Clear 55 13 27 -3 33 33 WNW 7 11 29.88 1012 10 16.0934 0 0
6:35 pm 18:35 Clear 52 11 27 -3 38 38 WNW 8 13 29.89 1012 10 16.0934 0 0
6:55 pm 18:55 Clear 52 11 27 -3 38 38 NW 6 9 29.9 1013 10 16.0934 0 0
7:15 pm 19:15 Clear 50 10 27 -3 40 40 WNW 7 11 29.91 1013 10 16.0934 0 0
7:35 pm 19:35 Clear 48 9 27 -3 43 43 W 7 11 29.91 1013 10 16.0934 0 0
7:55 pm 19:55 Clear 52 11 27 -3 38 38 WNW 13 20 29.9 1013 10 16.0934 0 0
8:15 pm 20:15 Clear 54 12 27 -3 35 35 NW 8 13 29.9 1013 10 16.0934 0 0
8:35 pm 20:35 Clear 50 10 27 -3 40 40 WNW 7 11 29.91 1013 10 16.0934 0 0
8:55 pm 20:55 Clear 50 10 27 -3 40 40 W 7 11 29.91 1013 10 16.0934 0 0
9:15 pm 21:15 Clear 50 10 27 -3 40 40 W 5 7 29.92 1013 10 16.0934 0 0
9:35 pm 21:35 Clear 46 8 27 -3 46 46 W 7 11 29.93 1014 10 16.0934 0 0
9:55 pm 21:55 Clear 46 8 27 -3 46 46 W 6 9 29.93 1014 10 16.0934 0 0
10:15 pm 22:15 Clear 46 8 28 -2 50 50 W 6 9 29.93 1014 10 16.0934 0 0
10:35 pm 22:35 Clear 45 7 28 -2 53 53 W 6 9 29.92 1013 10 16.0934 0 0
10:55 pm 22:55 Clear 41 5 30 -1 66 66 WSW 6 9 29.92 1013 10 16.0934 0 0
11:15 pm 23:15 Clear 43 6 28 -2 57 57 W 7 11 29.92 1013 10 16.0934 0 0
11:35 pm 23:35 Clear 43 6 28 -2 57 57 W 7 11 29.92 1013 10 16.0934 0 0
11:55 pm 23:55 Clear 41 5 28 -2 61 61 W 8 13 29.91 1013 10 16.0934 0 0

Powered by AerisWeather